TimeCST,TemperatureF,Dew PointF,Humidity,Sea Level PressureIn,VisibilityMPH,Wind Direction,Wind SpeedMPH,Gust SpeedMPH,PrecipitationIn,Events,Conditions,WindDirDegrees,DateUTC
12:17 AM,46.4,46.4,100,30.07,3.0,NE,9.2,-,N/A,,Overcast,40,2013-01-09 06:17:00
12:55 AM,46.8,46.8,100,30.07,2.0,NE,11.5,-,0.01,Rain,Light Rain,40,2013-01-09 06:55:00
1:10 AM,46.4,46.4,100,30.07,4.0,NE,8.1,-,N/A,Rain,Light Rain,40,2013-01-09 07:10:00
1:37 AM,46.4,46.4,100,30.04,10.0,NE,12.7,-,N/A,,Overcast,40,2013-01-09 07:37:00
1:51 AM,46.4,46.4,100,30.04,10.0,NNE,12.7,-,N/A,,Overcast,30,2013-01-09 07:51:00
1:55 AM,46.6,46.6,100,30.04,10.0,NNE,10.4,-,0.01,,Overcast,30,2013-01-09 07:55:00
2:23 AM,46.4,46.4,100,30.07,9.0,NNW,6.9,-,N/A,,Overcast,340,2013-01-09 08:23:00
2:55 AM,46.9,46.9,100,30.08,10.0,North,8.1,-,N/A,,Overcast,10,2013-01-09 08:55:00
3:55 AM,46.8,46.8,100,30.09,7.0,North,10.4,-,0.00,,Overcast,360,2013-01-09 09:55:00
4:17 AM,46.4,46.4,100,30.10,9.0,North,13.8,-,N/A,Rain,Light Rain,360,2013-01-09 10:17:00
4:40 AM,46.4,46.4,100,30.10,6.0,North,15.0,-,N/A,Rain,Light Rain,10,2013-01-09 10:40:00
4:55 AM,46.6,46.6,100,30.09,5.0,North,16.1,-,0.00,Rain,Light Rain,360,2013-01-09 10:55:00
5:02 AM,46.4,46.4,100,30.09,3.0,North,15.0,-,N/A,Rain,Light Rain,360,2013-01-09 11:02:00
5:55 AM,45.1,45.0,99,30.10,4.0,North,15.0,-,0.01,Rain,Light Rain,10,2013-01-09 11:55:00
6:11 AM,44.6,44.6,100,30.10,6.0,NNE,16.1,-,N/A,Rain,Light Rain,20,2013-01-09 12:11:00
6:55 AM,45.1,44.6,98,30.11,4.0,NNE,15.0,21.9,0.01,Rain,Light Rain,20,2013-01-09 12:55:00
7:26 AM,44.6,44.6,100,30.13,8.0,NNE,15.0,20.7,N/A,,Overcast,30,2013-01-09 13:26:00
7:35 AM,44.6,44.6,100,30.13,8.0,North,12.7,-,N/A,Rain,Light Rain,10,2013-01-09 13:35:00
7:41 AM,44.6,44.6,100,30.13,6.0,NNE,13.8,-,N/A,Rain,Light Rain,20,2013-01-09 13:41:00
7:55 AM,45.1,44.8,99,30.14,1.2,NNE,16.1,-,0.01,Rain,Light Rain,30,2013-01-09 13:55:00
8:24 AM,44.6,44.6,100,30.14,1.5,NNE,15.0,-,N/A,Rain,Light Rain,20,2013-01-09 14:24:00
8:55 AM,45.3,45.0,99,30.15,2.0,North,15.0,-,0.02,Rain,Light Rain,10,2013-01-09 14:55:00
9:05 AM,44.6,44.6,100,30.14,7.0,North,16.1,-,N/A,Rain,Light Rain,10,2013-01-09 15:05:00
9:55 AM,45.3,45.3,100,30.16,1.5,North,15.0,24.2,0.02,Rain,Light Rain,10,2013-01-09 15:55:00
10:18 AM,44.6,44.6,100,30.14,5.0,North,19.6,27.6,N/A,Rain,Light Rain,10,2013-01-09 16:18:00
10:34 AM,44.6,44.6,100,30.15,6.0,North,18.4,-,N/A,Rain,Light Rain,350,2013-01-09 16:34:00
10:55 AM,43.9,43.3,98,30.14,6.0,North,19.6,-,0.04,Rain,Light Rain,10,2013-01-09 16:55:00
11:45 AM,42.8,42.8,100,30.11,2.0,NNE,16.1,25.3,N/A,Rain,Light Rain,20,2013-01-09 17:45:00
11:51 AM,42.8,42.8,100,30.11,1.2,NNE,16.1,21.9,N/A,Rain,Rain,20,2013-01-09 17:51:00
11:55 AM,43.5,43.0,98,30.12,1.5,NNE,16.1,21.9,0.06,Rain,Rain,20,2013-01-09 17:55:00
12:11 PM,44.6,42.8,93,30.09,2.0,North,15.0,23.0,N/A,Rain,Rain,10,2013-01-09 18:11:00
12:55 PM,43.9,43.3,98,30.06,5.0,North,23.0,26.5,0.08,Rain,Light Rain,10,2013-01-09 18:55:00
1:28 PM,44.6,42.8,93,30.02,2.0,North,21.9,27.6,N/A,Rain,Light Rain,10,2013-01-09 19:28:00
1:55 PM,43.9,43.2,97,29.99,5.0,North,20.7,26.5,0.03,Rain,Light Rain,10,2013-01-09 19:55:00
2:31 PM,44.6,42.8,93,30.00,1.0,North,13.8,24.2,N/A,Rain,Rain,10,2013-01-09 20:31:00
2:38 PM,44.6,42.8,93,30.01,0.8,North,15.0,-,N/A,Rain,Heavy Rain,10,2013-01-09 20:38:00
2:44 PM,44.6,42.8,93,30.02,-9999.0,North,12.7,23.0,N/A,Rain,Heavy Rain,10,2013-01-09 20:44:00
2:51 PM,44.6,42.8,93,30.02,3.0,NNE,13.8,20.7,N/A,Rain,Heavy Rain,20,2013-01-09 20:51:00
2:55 PM,43.7,43.2,98,30.02,4.0,North,12.7,20.7,0.19,Rain,Heavy Rain,10,2013-01-09 20:55:00
3:01 PM,44.6,42.8,93,30.02,5.0,NNE,10.4,-,N/A,Rain,Rain,20,2013-01-09 21:01:00
3:14 PM,44.6,42.8,93,30.02,6.0,NNE,11.5,-,N/A,Rain,Rain,20,2013-01-09 21:14:00
3:51 PM,44.6,44.6,100,29.96,9.0,North,18.4,26.5,N/A,Rain,Light Rain,10,2013-01-09 21:51:00
3:55 PM,44.2,43.7,98,29.95,9.0,NNE,15.0,26.5,0.07,Rain,Light Rain,20,2013-01-09 21:55:00
4:16 PM,44.6,44.6,100,29.98,10.0,NNE,12.7,18.4,N/A,,Overcast,20,2013-01-09 22:16:00
4:21 PM,44.6,44.6,100,29.98,8.0,NNE,10.4,-,N/A,Rain,Light Rain,20,2013-01-09 22:21:00
4:55 PM,45.1,44.4,97,29.96,5.0,North,12.7,-,0.01,Rain,Light Rain,10,2013-01-09 22:55:00
5:55 PM,46.6,46.2,99,29.94,5.0,NNE,9.2,-,0.12,Rain,Light Rain,30,2013-01-09 23:55:00
6:14 PM,46.4,46.4,100,29.94,7.0,NNE,5.8,-,N/A,Rain,Rain,30,2013-01-10 00:14:00
6:39 PM,46.4,46.4,100,29.97,4.0,West,6.9,-,N/A,Rain,Light Rain,270,2013-01-10 00:39:00
6:55 PM,46.8,46.8,100,29.97,3.0,West,5.8,-,0.07,Rain,Light Rain,270,2013-01-10 00:55:00
7:47 PM,46.4,46.4,100,29.98,7.0,WNW,9.2,-,N/A,,Overcast,300,2013-01-10 01:47:00
7:49 PM,46.4,46.4,100,29.98,5.0,WNW,9.2,-,N/A,Rain,Light Rain,300,2013-01-10 01:49:00
7:55 PM,46.4,46.4,100,29.98,4.0,WNW,10.4,-,0.03,Rain,Light Rain,290,2013-01-10 01:55:00
8:28 PM,46.4,46.4,100,29.99,6.0,West,8.1,-,N/A,,Light Drizzle,280,2013-01-10 02:28:00
8:51 PM,46.4,46.4,100,29.99,6.0,WNW,8.1,-,N/A,,Overcast,290,2013-01-10 02:51:00
8:53 PM,46.4,46.4,100,29.99,6.0,WNW,8.1,-,N/A,,Light Drizzle,290,2013-01-10 02:53:00
8:55 PM,45.5,45.5,100,29.99,6.0,WNW,8.1,-,0.01,,Light Drizzle,290,2013-01-10 02:55:00
9:10 PM,46.4,46.4,100,29.99,5.0,WNW,8.1,-,N/A,,Overcast,300,2013-01-10 03:10:00
9:12 PM,46.4,46.4,100,29.99,6.0,WNW,8.1,-,N/A,Rain,Light Rain,300,2013-01-10 03:12:00
9:18 PM,44.6,44.6,100,29.99,8.0,WNW,6.9,-,N/A,,Light Drizzle,300,2013-01-10 03:18:00
9:23 PM,44.6,44.6,100,29.98,8.0,NW,8.1,-,N/A,,Overcast,310,2013-01-10 03:23:00
9:55 PM,45.3,45.3,100,29.98,8.0,WNW,8.1,-,0.00,,Overcast,290,2013-01-10 03:55:00
10:55 PM,45.5,45.5,100,29.97,8.0,WNW,8.1,-,N/A,,Overcast,300,2013-01-10 04:55:00
11:13 PM,46.4,46.4,100,29.97,10.0,NW,5.8,-,N/A,Rain,Light Rain,310,2013-01-10 05:13:00
11:23 PM,46.4,46.4,100,29.96,7.0,NW,6.9,-,N/A,,Overcast,320,2013-01-10 05:23:00
11:41 PM,46.4,46.4,100,29.97,4.0,West,8.1,-,N/A,,Overcast,270,2013-01-10 05:41:00
11:55 PM,45.5,45.5,100,29.98,4.0,West,5.8,-,0.01,Rain,Light Rain,260,2013-01-10 05:55:00
11:57 PM,46.4,46.4,100,29.98,4.0,WSW,4.6,-,N/A,Rain,Light Rain,250,2013-01-10 05:57:00